Regional Weather Roundup
Issued by NWS State College, PA

Home | Current Version | Previous Version | Graphics & Text | Print | Product List | Glossary Off
Versions: 1 2 3 4 5 6 7 8 9 10 11 12 13 14 15 16 17 18 19 20 21 22 23 24 25 26 27 28 29 30 31 32 33 34 35 36 37 38 39 40 41 42 43 44 45 46 47 48 49 50

000
ASUS41 KCTP 212310
RWRCTP

REGIONAL WEATHER ROUNDUP
NATIONAL WEATHER SERVICE STATE COLLEGE PA
600 PM EST TUE FEB 21 2017

Note: "fair" indicates few or no clouds below 12,000 feet with no
significant weather and/or obstructions to visibility.

* = STATION THAT DOES NOT REPORT PRECIPITATION /E.G. RAIN...SNOW...ETC/
    THUNDER OR FOG.

PAZ002>004-007>009-013>016-020>023-029>032-220000-
WESTERN PENNSYLVANIA

CITY           SKY/WX    TMP DP  RH WIND       PRES   REMARKS
ERIE           CLOUDY    55  44  66 S9        29.93F
MEADVILLE      CLOUDY    58  38  47 S3        29.98R
FRANKLIN*      CLOUDY    57  39  51 S5        30.00R
NEW CASTLE     FAIR      61  44  53 CALM      29.99R
BEAVER COUNTY  MOCLDY    61  41  48 CALM      29.99S
BUTLER*        PTCLDY    61  41  48 S5        30.01R
PITTSBURGH INT CLOUDY    63  43  48 CALM      30.00R
PITTSBURGH     CLOUDY    63  39  41 W3        29.99R
INDIANA*       MOCLDY    55  36  47 S6        30.05R
LATROBE        MOCLDY    63  39  42 S6        30.01S
WASHINGTON CO* CLOUDY    61  43  51 CALM      30.01S
$$

PAZ004>006-010>012-017>019-024>028-033>037-041-042-045-046-049>053-220000-
CENTRAL PENNSYLVANIA

CITY           SKY/WX    TMP DP  RH WIND       PRES   REMARKS
BRADFORD       PTCLDY    48  28  46 S8        30.01R
DUBOIS         CLOUDY    49  28  44 SE8       30.02R
CLEARFIELD       N/A    N/A N/A N/A MISG      30.06R
JOHNSTOWN      CLOUDY    48  31  51 S9        30.04R
ALTOONA        CLOUDY    49  33  54 S13       30.07F
STATE COLLEGE  CLEAR     48  30  49 S5        30.09R
WILLIAMSPORT   NOT AVBL
SELINSGROVE    NOT AVBL
FT INDIANTOWN  MOCLDY    46  26  44 CALM      30.15S
CAPITAL CITY   NOT AVBL
HARRISBURG     CLOUDY    48  32  53 SE5       30.14S
YORK           NOT AVBL
$$

PAZ038>040-043-044-047-048-054-055-060>062-067>071-220000-
EASTERN PENNSYLVANIA

CITY           SKY/WX    TMP DP  RH WIND       PRES   REMARKS
SCRANTON       NOT AVBL
MOUNT POCONO   NOT AVBL
ALLENTOWN      NOT AVBL
QUAKERTOWN*    CLOUDY    46  27  46 S3        30.18S
READING        NOT AVBL
LANCASTER      NOT AVBL
COATESVILLE    CLOUDY    43  34  70 SE7       30.17F
POTTSTOWN      NOT AVBL
BLUE BELL      CLOUDY    45  27  49 S3        30.18S
DOYLESTOWN     NOT AVBL
WILLOW GROVE   NOT AVBL
NORTH PHILA    NOT AVBL
PHILADELPHIA   NOT AVBL
$$



USA.gov is the U.S. government's official web portal to all federal, state and local government web resources and services.